TimeEST,TemperatureF,Dew PointF,Humidity,Sea Level PressureIn,VisibilityMPH,Wind Direction,Wind SpeedMPH,Gust SpeedMPH,PrecipitationIn,Events,Conditions,WindDirDegrees,DateUTC
12:53 AM,30.0,27.0,88,30.30,8.0,Calm,Calm,-,N/A,,Partly Cloudy,0,2012-12-12 05:53:00
1:53 AM,28.9,26.1,89,30.32,6.0,Calm,Calm,-,N/A,,Clear,0,2012-12-12 06:53:00
2:37 AM,28.4,24.8,86,30.31,2.0,Calm,Calm,-,N/A,,Clear,0,2012-12-12 07:37:00
2:53 AM,28.0,25.0,88,30.34,4.0,Calm,Calm,-,N/A,,Clear,0,2012-12-12 07:53:00
3:53 AM,26.1,23.0,88,30.37,4.0,Calm,Calm,-,N/A,,Clear,0,2012-12-12 08:53:00
4:53 AM,26.1,23.0,88,30.38,4.0,Calm,Calm,-,N/A,,Clear,0,2012-12-12 09:53:00
5:53 AM,25.0,23.0,92,30.39,5.0,Calm,Calm,-,N/A,,Clear,0,2012-12-12 10:53:00
6:53 AM,24.1,21.9,91,30.42,10.0,Calm,Calm,-,N/A,,Clear,0,2012-12-12 11:53:00
7:53 AM,24.1,21.0,88,30.44,10.0,Calm,Calm,-,N/A,,Clear,0,2012-12-12 12:53:00
8:53 AM,27.0,24.1,89,30.46,10.0,Calm,Calm,-,N/A,,Clear,0,2012-12-12 13:53:00
9:53 AM,30.9,27.0,85,30.47,10.0,Calm,Calm,-,N/A,,Clear,0,2012-12-12 14:53:00
10:53 AM,34.0,25.0,70,30.47,10.0,Calm,Calm,-,N/A,,Clear,0,2012-12-12 15:53:00
11:53 AM,37.0,23.0,57,30.45,10.0,Calm,Calm,-,N/A,,Clear,0,2012-12-12 16:53:00
12:53 PM,39.0,24.1,55,30.43,10.0,Calm,Calm,-,N/A,,Clear,0,2012-12-12 17:53:00
1:53 PM,41.0,23.0,49,30.42,10.0,Calm,Calm,-,N/A,,Clear,0,2012-12-12 18:53:00
2:53 PM,42.1,19.9,41,30.41,10.0,Calm,Calm,-,N/A,,Clear,0,2012-12-12 19:53:00
3:53 PM,41.0,19.9,43,30.41,10.0,Calm,Calm,-,N/A,,Clear,0,2012-12-12 20:53:00
4:53 PM,39.9,19.0,43,30.43,10.0,Calm,Calm,-,N/A,,Clear,0,2012-12-12 21:53:00
5:53 PM,35.1,23.0,61,30.44,10.0,Calm,Calm,-,N/A,,Clear,0,2012-12-12 22:53:00
6:53 PM,32.0,23.0,69,30.44,10.0,Calm,Calm,-,N/A,,Clear,0,2012-12-12 23:53:00
7:53 PM,30.0,23.0,75,30.45,9.0,Calm,Calm,-,N/A,,Clear,0,2012-12-13 00:53:00
8:53 PM,28.0,24.1,85,30.46,9.0,Calm,Calm,-,N/A,,Clear,0,2012-12-13 01:53:00
9:53 PM,27.0,23.0,85,30.46,9.0,Calm,Calm,-,N/A,,Clear,0,2012-12-13 02:53:00
10:53 PM,26.1,21.9,84,30.45,9.0,Calm,Calm,-,N/A,,Clear,0,2012-12-13 03:53:00
11:53 PM,25.0,21.0,85,30.44,6.0,Calm,Calm,-,N/A,,Clear,0,2012-12-13 04:53:00